TimeEST,TemperatureF,Dew PointF,Humidity,Sea Level PressureIn,VisibilityMPH,Wind Direction,Wind SpeedMPH,Gust SpeedMPH,PrecipitationIn,Events,Conditions,WindDirDegrees,DateUTC
12:00 AM,64.4,57.2,77,30.11,6.2,Calm,Calm,-,N/A,,Partly Cloudy,0,2013-02-03 05:00:00
1:00 AM,62,57,78,30.10,9,Calm,Calm,,,,Scattered Clouds,,2013-02-03 06:00:00
1:00 AM,62.6,57.2,82,30.09,6.2,Calm,Calm,-,N/A,,Partly Cloudy,0,2013-02-03 06:00:00
2:00 AM,62.6,57.2,82,30.07,6.2,Calm,Calm,-,N/A,,Partly Cloudy,0,2013-02-03 07:00:00
3:00 AM,62.6,57.2,82,30.05,6.2,Calm,Calm,-,N/A,,Partly Cloudy,0,2013-02-03 08:00:00
4:00 AM,61,58,85,30.04,9,Calm,Calm,,,,Scattered Clouds,,2013-02-03 09:00:00
4:00 AM,60.8,57.2,88,30.03,6.2,Calm,Calm,-,N/A,,Partly Cloudy,0,2013-02-03 09:00:00
5:00 AM,60.8,55.4,82,30.04,6.2,Calm,Calm,-,N/A,,Partly Cloudy,0,2013-02-03 10:00:00
6:00 AM,62.6,57.2,82,30.04,6.2,Calm,Calm,-,N/A,,Scattered Clouds,0,2013-02-03 11:00:00
7:00 AM,63,58,78,30.07,9,Calm,Calm,,,,Partly Cloudy,,2013-02-03 12:00:00
7:00 AM,62.6,57.2,82,30.07,6.2,Calm,Calm,-,N/A,,Scattered Clouds,0,2013-02-03 12:00:00
9:00 AM,71.6,57.2,60,30.11,6.2,North,6.9,-,N/A,,Scattered Clouds,10,2013-02-03 14:00:00
10:00 AM,73,56,45,30.14,9,North,9.2,,,,Mostly Cloudy,0,2013-02-03 15:00:00
10:00 AM,73.4,55.4,53,30.14,6.2,North,9.2,-,N/A,,Scattered Clouds,360,2013-02-03 15:00:00
11:00 AM,71.6,57.2,60,30.14,6.2,North,6.9,-,N/A,,Scattered Clouds,350,2013-02-03 16:00:00
12:00 PM,73.4,55.4,53,30.13,6.2,NNW,11.5,-,N/A,,Scattered Clouds,340,2013-02-03 17:00:00
1:00 PM,75.2,55.4,50,30.11,6.2,NNW,16.1,-,N/A,,Mostly Cloudy,340,2013-02-03 18:00:00
3:00 PM,73.4,53.6,50,30.06,6.2,North,11.5,-,N/A,,Mostly Cloudy,360,2013-02-03 20:00:00
4:00 PM,75,52,34,30.06,9,NNW,69.0,,,,Scattered Clouds,330,2013-02-03 21:00:00
4:00 PM,75.2,51.8,44,30.06,6.2,North,9.2,-,N/A,,Scattered Clouds,360,2013-02-03 21:00:00
5:00 PM,71.6,57.2,60,30.06,6.2,North,6.9,-,N/A,,Scattered Clouds,360,2013-02-03 22:00:00
6:00 PM,71.6,53.6,53,30.06,6.2,North,9.2,-,N/A,,Scattered Clouds,360,2013-02-03 23:00:00
7:00 PM,69.8,53.6,56,30.07,6.2,North,6.9,-,N/A,,Scattered Clouds,360,2013-02-04 00:00:00
8:00 PM,69.8,53.6,56,30.08,6.2,North,4.6,-,N/A,,Scattered Clouds,360,2013-02-04 01:00:00
9:00 PM,69.8,53.6,56,30.09,6.2,NNW,6.9,-,N/A,,Scattered Clouds,330,2013-02-04 02:00:00
10:00 PM,69,53,47,30.09,9,North,6.9,,,,Partly Cloudy,0,2013-02-04 03:00:00
10:00 PM,69.8,53.6,56,30.09,6.2,North,6.9,-,N/A,,Scattered Clouds,360,2013-02-04 03:00:00
11:00 PM,68.0,53.6,60,30.09,6.2,NNE,4.6,-,N/A,,Scattered Clouds,20,2013-02-04 04:00:00